Alexandria, LA

6:17 PM CST on February 19, 2018 (GMT -0600)
Alexandria International

Weather History for KAEX - April, 2013

Change the Weather History Date:

Thursday, April 18, 2013

  Actual Average Record
Temperature  
Mean Temperature 67 °F 67 °F  
Max Temperature 84 °F 79 °F 92 °F (2006)
Min Temperature 50 °F 55 °F 39 °F (1999)
Degree Days  
Heating Degree Days 0 2  
Month to date heating degree days 61 56  
Since 1 July heating degree days 1800 1936  
Cooling Degree Days 2 3  
Month to date cooling degree days 60 50  
Year to date cooling degree days 94 103  
Growing Degree Days 16 (Base 50)    
Moisture  
Dew Point 62 °F    
Average Humidity 76    
Maximum Humidity 87    
Minimum Humidity 65    
Precipitation  
Precipitation 0.58 in 0.15 in 2.57 in (1991)
Month to date precipitation 2.74 3.05  
Year to date precipitation 20.58 17.78  
Snow  
Snow 0.00 in - 0.00 in ()
Month to date snowfall 0.0  
Since 1 July snowfall 0.0  
Snow Depth 0.00 in    
Sea Level Pressure  
Sea Level Pressure 29.82 in    
Wind  
Wind Speed 14 mph (West)    
Max Wind Speed 22 mph    
Max Gust Speed 30 mph    
Visibility 8 miles    
Events Rain , Thunderstorm    
T = Trace of Precipitation, MM = Missing Value Source: NWS Daily Summary

Daily Weather History Graph

Daily Weather History Graph

Search for Another Location

Airport or City:

Trip Planner

Search our weather history database for the weather conditions in past years. The results will help you decide how hot, cold, wet, or windy it might be!

Date:

Astronomy

Apr. 18, 2013 Rise Set
Actual Time 6:38 AM CDT 7:40 PM CDT
Civil Twilight 6:13 AM CDT 8:06 PM CDT
Nautical Twilight 5:43 AM CDT 8:35 PM CDT
Astronomical Twilight 5:13 AM CDT 9:06 PM CDT
Moon 12:54 PM CDT (4/18) 1:51 AM CDT (4/18)
Length of Visible Light 13h 52m
Length of Day
13h 02m
First Quarter, 52% of the Moon is Illuminated
Apr 18
First Quarter
Apr 25
Full
May 2
Last Quarter
May 9
New
May 17
First Quarter

Hourly Weather History & Observations

Time (CDT) Temp. Heat Index Dew Point Humidity Pressure Visibility Wind Dir Wind Speed Gust Speed Precip Events Conditions
12:07 AM 75.2 °F - 69.8 °F 83% 29.85 in 10.0 mi SSE 8.1 mph - N/A   Overcast
12:30 AM 75.2 °F - 71.6 °F 89% 29.85 in 10.0 mi SSE 10.4 mph - N/A   Overcast
12:53 AM 75.0 °F - 71.1 °F 87% 29.86 in 10.0 mi SSE 8.1 mph - N/A   Overcast
1:35 AM 75.2 °F - 69.8 °F 83% 29.84 in 10.0 mi SSE 11.5 mph - N/A   Mostly Cloudy
1:53 AM 75.9 °F - 69.1 °F 79% 29.85 in 10.0 mi SSE 13.8 mph 25.3 mph N/A   Mostly Cloudy
2:53 AM 75.0 °F - 69.1 °F 82% 29.82 in 10.0 mi SSE 13.8 mph 23.0 mph N/A   Overcast
3:15 AM 75.2 °F - 69.8 °F 83% 29.80 in 10.0 mi SSE 11.5 mph 19.6 mph N/A   Overcast
3:53 AM 73.9 °F - 69.1 °F 85% 29.79 in 10.0 mi SSE 13.8 mph - N/A   Mostly Cloudy
4:07 AM 73.4 °F - 69.8 °F 88% 29.78 in 10.0 mi SSE 12.7 mph 18.4 mph N/A   Mostly Cloudy
4:53 AM 73.9 °F - 69.1 °F 85% 29.78 in 10.0 mi SSE 15.0 mph 21.9 mph N/A   Overcast
5:43 AM 73.4 °F - 69.8 °F 88% 29.75 in 10.0 mi SSE 12.7 mph 20.7 mph N/A   Overcast
5:53 AM 73.9 °F - 69.1 °F 85% 29.77 in 10.0 mi SSE 13.8 mph 21.9 mph N/A   Overcast
6:31 AM 75.2 °F - 68.0 °F 78% 29.76 in 10.0 mi SSE 11.5 mph 21.9 mph N/A   Overcast
6:53 AM 75.0 °F - 68.0 °F 79% 29.78 in 10.0 mi SSE 13.8 mph 23.0 mph N/A   Overcast
7:31 AM 75.2 °F - 68.0 °F 78% 29.78 in 10.0 mi South 8.1 mph - N/A   Overcast
7:43 AM 75.2 °F - 68.0 °F 78% 29.79 in 10.0 mi SSE 9.2 mph 19.6 mph N/A   Overcast
7:53 AM 75.0 °F - 69.1 °F 82% 29.80 in 10.0 mi SSE 11.5 mph 18.4 mph N/A   Mostly Cloudy
8:53 AM 75.9 °F - 69.1 °F 79% 29.80 in 10.0 mi South 8.1 mph 21.9 mph N/A   Overcast
9:53 AM 77.0 °F - 69.1 °F 76% 29.80 in 10.0 mi South 13.8 mph 19.6 mph N/A   Overcast
10:53 AM 79.0 °F - 69.1 °F 72% 29.79 in 10.0 mi South 16.1 mph 21.9 mph N/A   Mostly Cloudy
11:53 AM 80.1 °F 82.9 °F 69.1 °F 69% 29.78 in 10.0 mi South 11.5 mph 18.4 mph N/A   Overcast
12:53 PM 81.0 °F 84.4 °F 70.0 °F 69% 29.76 in 10.0 mi South 10.4 mph - N/A   Overcast
1:53 PM 82.0 °F 85.9 °F 70.0 °F 67% 29.74 in 10.0 mi South 13.8 mph 21.9 mph N/A   Mostly Cloudy
2:53 PM 82.9 °F 87.5 °F 71.1 °F 67% 29.71 in 10.0 mi South 13.8 mph 26.5 mph N/A   Overcast
3:53 PM 81.0 °F 84.4 °F 70.0 °F 69% 29.70 in 10.0 mi South 15.0 mph 24.2 mph N/A   Overcast
4:43 PM 73.4 °F - 66.2 °F 78% 29.71 in 10.0 mi NW 16.1 mph 24.2 mph 0.00 in Rain Light Rain
4:46 PM 66.2 °F - 62.6 °F 88% 29.71 in 10.0 mi NW 15.0 mph 24.2 mph 0.00 in Rain Light Rain
4:53 PM 64.9 °F - 63.0 °F 93% 29.73 in 7.0 mi NNW 21.9 mph 29.9 mph 0.00 in Rain Light Rain
4:58 PM 64.4 °F - 62.6 °F 94% 29.73 in 2.5 mi NNW 17.3 mph 29.9 mph 0.02 in Rain Rain
5:02 PM 62.6 °F - 62.6 °F 100% 29.73 in 1.2 mi NW 17.3 mph 29.9 mph 0.05 in Rain Heavy Rain
5:11 PM 62.6 °F - 62.6 °F 100% 29.75 in 1.0 mi NW 18.4 mph 24.2 mph 0.12 in Rain Heavy Rain
5:29 PM 60.8 °F - 60.8 °F 100% 29.75 in 2.0 mi NW 16.1 mph 24.2 mph 0.20 in Rain Rain
5:34 PM 60.8 °F - 60.8 °F 100% 29.75 in 1.5 mi NW 18.4 mph 24.2 mph 0.29 in Rain Heavy Rain
5:44 PM 60.8 °F - 59.0 °F 94% 29.78 in 3.0 mi WNW 20.7 mph 27.6 mph 0.31 in Rain Light Rain
5:51 PM 59.0 °F - 57.2 °F 94% 29.78 in 5.0 mi NW 18.4 mph 27.6 mph 0.32 in Rain , Thunderstorm Rain
5:53 PM 59.0 °F - 57.0 °F 93% 29.79 in 5.0 mi NW 17.3 mph 27.6 mph 0.32 in Rain , Thunderstorm Rain
6:12 PM 59.0 °F - 57.2 °F 94% 29.79 in 7.0 mi NW 13.8 mph 24.2 mph 0.02 in Rain Light Rain
6:23 PM 57.2 °F - 55.4 °F 94% 29.79 in 6.0 mi NW 16.1 mph 25.3 mph 0.03 in Rain Light Rain
6:37 PM 57.2 °F - 55.4 °F 94% 29.81 in 6.0 mi NW 12.7 mph 25.3 mph 0.05 in Rain Rain
6:53 PM 55.9 °F - 54.0 °F 93% 29.84 in 4.0 mi NW 15.0 mph 23.0 mph 0.09 in Rain Rain
7:08 PM 55.4 °F - 53.6 °F 94% 29.82 in 5.0 mi NW 17.3 mph 24.2 mph 0.01 in Rain Rain
7:17 PM 55.4 °F - 53.6 °F 94% 29.82 in 9.0 mi NW 15.0 mph - 0.01 in Rain Light Rain
7:44 PM 53.6 °F - 53.6 °F 100% 29.86 in 5.0 mi WNW 15.0 mph 21.9 mph 0.06 in Rain , Thunderstorm Heavy Rain
7:53 PM 54.0 °F - 53.1 °F 97% 29.88 in 5.0 mi WNW 11.5 mph 23.0 mph 0.08 in Rain , Thunderstorm Rain
8:23 PM 51.8 °F - 51.8 °F 100% 29.88 in 7.0 mi NW 12.7 mph 23.0 mph 0.08 in Rain , Thunderstorm Light Thunderstorms and Rain
8:27 PM 51.8 °F - 51.8 °F 100% 29.89 in 9.0 mi WNW 12.7 mph - 0.08 in Rain Light Rain
8:34 PM 51.8 °F - 51.8 °F 100% 29.89 in 10.0 mi NW 17.3 mph 20.7 mph 0.08 in Rain Light Rain
8:53 PM 52.0 °F - 51.1 °F 97% 29.93 in 10.0 mi NW 19.6 mph 25.3 mph 0.08 in Rain , Thunderstorm Light Rain
8:57 PM 51.8 °F - 50.0 °F 94% 29.91 in 10.0 mi NW 18.4 mph 28.8 mph 0.01 in Rain Light Rain
9:09 PM 51.8 °F - 48.2 °F 88% 29.91 in 10.0 mi NW 13.8 mph 24.2 mph 0.01 in Rain Light Rain
9:53 PM 51.1 °F - 48.9 °F 92% 29.96 in 10.0 mi NW 13.8 mph - 0.01 in   Overcast
9:56 PM 51.8 °F - 48.2 °F 88% 29.95 in 10.0 mi NW 11.5 mph - N/A   Overcast
10:28 PM 51.8 °F - 48.2 °F 88% 29.96 in 10.0 mi NW 17.3 mph 24.2 mph N/A   Overcast
10:53 PM 51.1 °F - 46.9 °F 86% 29.99 in 10.0 mi NW 11.5 mph 23.0 mph N/A   Overcast
11:53 PM 50.0 °F - 46.0 °F 86% 30.01 in 10.0 mi NNW 13.8 mph 23.0 mph N/A   Overcast